Flag for Venezuela Weather past 2 weeks in Barquisimeto, Venezuela

Now
68 °F

Passing clouds.


Feels Like: 68 °F
Forecast: 63 / 90 °F
Wind: 5 mph from East

Location: Barquisimeto Airport

Current Time: Mar 1, 2015 at 4:20:44 AM

Latest Report: Mar 1, 2015 at 1:30 AM


Visibility: N/A

Pressure: 30.07 "Hg

Humidity: 83%

Dew point: 63 °F

Location of BarquisimetoLocation

Historic Weather in Barquisimeto — Graph

°F

Barquisimeto temperature yesterday

Maximum temperature yesterday: 88 °F (at 3:30 PM)
Minimum temperature yesterday: 72 °F (at 4:30 AM)
Average temperature yesterday: 77 °F

Past Weeks' High & Low Weather Summary

 TemperatureHumidityPressure
High91 °F (Feb 18, 3:30 PM)94% (Feb 14, 5:30 AM)30.09 "Hg (Feb 14, 5:30 AM)
Low64 °F (Feb 20, 6:30 AM)31% (Feb 16, 3:30 PM)29.92 "Hg (Feb 15, 4:30 PM)
Average78 °F63%30.01 "Hg
* Reported Feb 14 1:30 AM — Mar 1 1:30 AM, Barquisimeto, Weather by CustomWeather, © 2015

Note: Actual official high and low records may vary slightly from our data, if they occured in-between our weather recording intervals... More about our weather records

Advertising

Barquisimeto weather history for previous 24 hours

 ConditionsComfort  
Time TempWeatherWind HumidityBarometerVisibility
1:30 AM
Sun, Mar 1
68 °FPassing clouds.5 mph83%30.07 "HgN/A
10:30 PM
Sat, Feb 28
72 °FPassing clouds.2 mph73%30.07 "HgN/A
9:30 PM72 °FPassing clouds.6 mph73%30.07 "HgN/A
8:30 PM73 °FPassing clouds.9 mph74%30.04 "HgN/A
7:30 PM73 °FPassing clouds.12 mph78%30.04 "HgN/A
6:30 PM77 °FPassing clouds.15 mph65%30.01 "HgN/A
5:30 PM82 °FScattered clouds.13 mph51%29.98 "HgN/A
4:30 PM82 °FScattered clouds.12 mph51%29.98 "HgN/A
3:30 PM88 °FScattered clouds.12 mph40%30.01 "HgN/A
2:30 PM81 °FPartly sunny.14 mph58%30.01 "HgN/A
1:30 PM81 °FPartly sunny.17 mph58%30.04 "HgN/A
12:30 PM84 °FPartly sunny.12 mph51%30.04 "HgN/A
11:30 AM81 °FPartly sunny.9 mph62%30.07 "HgN/A
10:30 AM81 °FPartly sunny.6 mph62%30.07 "HgN/A
9:30 AM77 °FPartly sunny.5 mph74%30.07 "HgN/A
8:30 AM73 °FPartly sunny.5 mph83%30.07 "HgN/A
7:30 AM73 °FPartly sunny.5 mph83%30.04 "HgN/A
6:30 AM73 °FOvercast.5 mph83%30.01 "HgN/A
5:30 AM72 °FPassing clouds.1 mph88%30.01 "HgN/A
4:30 AM72 °FPassing clouds.7 mph88%30.01 "HgN/A
Weather by CustomWeather, © 2015

See weather overviewHow to use our weather pages